When you browse on this site, cookies collect data to enhance your experience and personalize the content and advertising you see.
Visit our Privacy Policy to learn more. By continuing to use the site, you agree to this use of cookies and data.
  • In Romania
  • List of Countries
  • For 7 days
  • Water Temperature
  • Satellite Maps
  • Weather Map
  • Weather Widgets
  • user-avatar
    Login

    Hourly Weather Houston

    Today, 23 February, Saturday

    Time Temperature Precipitation Wind Pressure Humidity
    00:00 +20°C° 0 mm 2 mps 758 mmHg 98%
    01:00 +20°C° 0 mm 2 mps 757 mmHg 98%
    02:00 +21°C° 0 mm 3 mps 757 mmHg 98%
    03:00 +21°C° 0 mm 3 mps 757 mmHg 98%
    04:00 +21°C° 0.2 mm 4 mps 757 mmHg 97%
    05:00 +22°C° 0.2 mm 4 mps 757 mmHg 96%
    06:00 +22°C° 0.2 mm 4 mps 756 mmHg 96%
    07:00 +22°C° 1.4 mm 5 mps 757 mmHg 95%
    08:00 +23°C° 1.4 mm 5 mps 758 mmHg 93%
    09:00 +23°C° 1.4 mm 5 mps 758 mmHg 92%
    10:00 +23°C° 0.5 mm 6 mps 758 mmHg 81%
    11:00 +24°C° 0.5 mm 6 mps 759 mmHg 69%
    12:00 +24°C° 0.5 mm 7 mps 759 mmHg 57%
    13:00 +26°C° 0 mm 6 mps 759 mmHg 48%
    14:00 +26°C° 0 mm 6 mps 759 mmHg 38%
    15:00 +26°C° 0 mm 6 mps 759 mmHg 29%
    16:00 +25°C° 0 mm 5 mps 759 mmHg 29%
    17:00 +22°C° 0 mm 5 mps 760 mmHg 30%
    18:00 +21°C° 0 mm 5 mps 760 mmHg 30%
    19:00 +20°C° 0 mm 4 mps 761 mmHg 30%
    20:00 +20°C° 0 mm 3 mps 761 mmHg 30%
    21:00 +19°C° 0 mm 3 mps 762 mmHg 30%
    22:00 +19°C° 0 mm 3 mps 762 mmHg 29%
    23:00 +18°C° 0 mm 3 mps 763 mmHg 29%

    Tomorrow, 24 February, Sunday

    Time Temperature Precipitation Wind Pressure Humidity
    00:00 +17°C° 0 mm 3 mps 763 mmHg 28%
    01:00 +17°C° 0 mm 4 mps 764 mmHg 31%
    02:00 +15°C° 0 mm 4 mps 764 mmHg 34%
    03:00 +14°C° 0 mm 5 mps 765 mmHg 37%
    04:00 +13°C° 0 mm 5 mps 765 mmHg 39%
    05:00 +13°C° 0 mm 4 mps 766 mmHg 42%
    06:00 +12°C° 0 mm 4 mps 766 mmHg 44%
    07:00 +12°C° 0 mm 4 mps 767 mmHg 44%
    08:00 +12°C° 0 mm 4 mps 768 mmHg 44%
    09:00 +12°C° 0 mm 4 mps 769 mmHg 44%
    10:00 +14°C° 0 mm 4 mps 769 mmHg 39%
    11:00 +17°C° 0 mm 4 mps 769 mmHg 35%
    12:00 +18°C° 0 mm 3 mps 769 mmHg 30%
    13:00 +19°C° 0 mm 4 mps 769 mmHg 29%
    14:00 +20°C° 0 mm 4 mps 768 mmHg 28%
    15:00 +20°C° 0 mm 4 mps 768 mmHg 27%
    16:00 +20°C° 0 mm 3 mps 768 mmHg 29%
    17:00 +19°C° 0 mm 3 mps 768 mmHg 31%
    18:00 +18°C° 0 mm 3 mps 768 mmHg 34%
    19:00 +17°C° 0 mm 3 mps 768 mmHg 36%
    20:00 +16°C° 0 mm 3 mps 768 mmHg 38%
    21:00 +16°C° 0 mm 3 mps 769 mmHg 40%
    22:00 +14°C° 0 mm 3 mps 769 mmHg 42%
    23:00 +13°C° 0 mm 4 mps 769 mmHg 43%

    Day after tomorrow, 25 February, Monday

    Time Temperature Precipitation Wind Pressure Humidity
    00:00 +13°C° 0 mm 4 mps 769 mmHg 45%
    01:00 +12°C° 0 mm 4 mps 769 mmHg 47%
    02:00 +12°C° 0 mm 4 mps 769 mmHg 48%
    03:00 +11°C° 0 mm 4 mps 768 mmHg 50%
    04:00 +11°C° 0 mm 4 mps 769 mmHg 51%
    05:00 +11°C° 0 mm 4 mps 769 mmHg 52%
    06:00 +10°C° 0 mm 4 mps 769 mmHg 53%
    07:00 +11°C° 0 mm 4 mps 769 mmHg 51%
    08:00 +10°C° 0 mm 5 mps 770 mmHg 49%
    09:00 +10°C° 0 mm 5 mps 770 mmHg 47%
    10:00 +13°C° 0 mm 5 mps 770 mmHg 46%
    11:00 +14°C° 0 mm 5 mps 769 mmHg 45%
    12:00 +17°C° 0 mm 4 mps 769 mmHg 44%
    13:00 +16°C° 0 mm 5 mps 768 mmHg 46%
    14:00 +17°C° 0 mm 5 mps 768 mmHg 47%
    15:00 +19°C° 0 mm 5 mps 767 mmHg 49%
    16:00 +17°C° 0 mm 5 mps 767 mmHg 54%
    17:00 +17°C° 0 mm 4 mps 766 mmHg 59%
    18:00 +17°C° 0 mm 4 mps 766 mmHg 64%
    19:00 +17°C° 0 mm 4 mps 767 mmHg 67%
    20:00 +15°C° 0 mm 4 mps 767 mmHg 71%
    21:00 +15°C° 0 mm 4 mps 767 mmHg 74%
    22:00 +16°C° 0 mm 3 mps 767 mmHg 76%
    23:00 +16°C° 0 mm 3 mps 767 mmHg 78%

    26 February, Tuesday

    Time Temperature Precipitation Wind Pressure Humidity
    00:00 +17°C° 0 mm 3 mps 767 mmHg 80%
    01:00 +16°C° 0 mm 3 mps 766 mmHg 81%
    02:00 +16°C° 0 mm 3 mps 766 mmHg 83%
    03:00 +16°C° 0 mm 2 mps 765 mmHg 84%
    04:00 +16°C° 0.1 mm 3 mps 765 mmHg 84%
    05:00 +16°C° 0.1 mm 3 mps 765 mmHg 84%
    06:00 +16°C° 0.1 mm 3 mps 765 mmHg 84%
    07:00 +16°C° 0.1 mm 3 mps 765 mmHg 84%
    08:00 +17°C° 0.1 mm 3 mps 765 mmHg 85%
    09:00 +17°C° 0.1 mm 3 mps 766 mmHg 85%
    10:00 +18°C° 0.1 mm 3 mps 765 mmHg 83%
    11:00 +19°C° 0.1 mm 3 mps 765 mmHg 82%
    12:00 +20°C° 0.1 mm 3 mps 765 mmHg 81%
    13:00 +20°C° 0.2 mm 3 mps 764 mmHg 83%
    14:00 +20°C° 0.2 mm 3 mps 763 mmHg 85%
    15:00 +20°C° 0.2 mm 2 mps 763 mmHg 87%
    16:00 +20°C° 0.1 mm 3 mps 763 mmHg 88%
    17:00 +20°C° 0.1 mm 3 mps 763 mmHg 89%
    18:00 +20°C° 0.1 mm 3 mps 763 mmHg 90%
    19:00 +19°C° 0 mm 3 mps 763 mmHg 91%
    20:00 +19°C° 0 mm 3 mps 763 mmHg 92%
    21:00 +19°C° 0 mm 3 mps 763 mmHg 92%
    22:00 +19°C° 0 mm 2 mps 763 mmHg 94%
    23:00 +19°C° 0 mm 2 mps 763 mmHg 95%

    27 February, Wednesday

    Time Temperature Precipitation Wind Pressure Humidity
    00:00 +19°C° 0 mm 2 mps 762 mmHg 96%
    01:00 +20°C° 0 mm 1 mps 762 mmHg 97%
    02:00 +20°C° 0 mm 1 mps 762 mmHg 98%
    03:00 +20°C° 0 mm 1 mps 762 mmHg 98%
    04:00 +20°C° 0.1 mm 1 mps 762 mmHg 98%
    05:00 +20°C° 0.1 mm 1 mps 762 mmHg 98%
    06:00 +20°C° 0.1 mm 1 mps 762 mmHg 98%
    07:00 +21°C° 0 mm 1 mps 762 mmHg 96%
    08:00 +19°C° 0 mm 0 mps 762 mmHg 93%
    09:00 +20°C° 0 mm 0 mps 763 mmHg 91%
    10:00 +23°C° 0 mm 1 mps 763 mmHg 84%
    11:00 +25°C° 0 mm 1 mps 762 mmHg 76%
    12:00 +26°C° 0 mm 1 mps 762 mmHg 69%
    13:00 +27°C° 0 mm 1 mps 762 mmHg 68%
    14:00 +27°C° 0 mm 1 mps 761 mmHg 66%
    15:00 +27°C° 0 mm 1 mps 760 mmHg 64%
    16:00 +27°C° 0 mm 1 mps 760 mmHg 67%
    17:00 +26°C° 0 mm 1 mps 760 mmHg 69%
    18:00 +26°C° 0 mm 1 mps 760 mmHg 72%
    19:00 +25°C° 0 mm 1 mps 760 mmHg 76%
    20:00 +24°C° 0 mm 1 mps 761 mmHg 81%
    21:00 +23°C° 0 mm 1 mps 761 mmHg 85%
    22:00 +23°C° 0 mm 1 mps 761 mmHg 87%
    23:00 +22°C° 0 mm 1 mps 761 mmHg 90%

    28 February, Thursday

    Time Temperature Precipitation Wind Pressure Humidity
    00:00 +22°C° 0 mm 1 mps 760 mmHg 92%
    01:00 +22°C° 0 mm 1 mps 760 mmHg 93%
    02:00 +21°C° 0 mm 1 mps 760 mmHg 94%
    03:00 +21°C° 0 mm 1 mps 760 mmHg 95%
    04:00 +21°C° 0 mm 1 mps 760 mmHg 95%
    05:00 +21°C° 0 mm 1 mps 760 mmHg 95%
    06:00 +21°C° 0 mm 1 mps 760 mmHg 96%
    07:00 +21°C° 0.1 mm 1 mps 761 mmHg 95%
    08:00 +19°C° 0.1 mm 0 mps 761 mmHg 94%
    09:00 +19°C° 0.1 mm 0 mps 761 mmHg 93%
    10:00 +20°C° 0 mm 0 mps 761 mmHg 89%
    11:00 +21°C° 0 mm 0 mps 761 mmHg 85%
    12:00 +22°C° 0 mm 0 mps 761 mmHg 81%
    13:00 +24°C° 0 mm 1 mps 760 mmHg 79%
    14:00 +24°C° 0 mm 1 mps 760 mmHg 77%
    15:00 +24°C° 0 mm 1 mps 759 mmHg 76%
    16:00 +24°C° 0 mm 2 mps 759 mmHg 76%
    17:00 +24°C° 0 mm 2 mps 759 mmHg 76%
    18:00 +24°C° 0 mm 2 mps 759 mmHg 76%
    19:00 +23°C° 0 mm 2 mps 759 mmHg 78%
    20:00 +21°C° 0 mm 2 mps 759 mmHg 80%
    21:00 +22°C° 0 mm 1 mps 760 mmHg 81%
    22:00 +21°C° 0 mm 1 mps 759 mmHg 83%
    23:00 +21°C° 0 mm 1 mps 759 mmHg 85%
    Show more